TimeHST,TemperatureF,Dew PointF,Humidity,Sea Level PressureIn,VisibilityMPH,Wind Direction,Wind SpeedMPH,Gust SpeedMPH,PrecipitationIn,Events,Conditions,WindDirDegrees,DateUTC
12:16 AM,28.4,26.6,93,30.20,10.0,West,3.5,-,N/A,,Clear,270,2012-12-01 10:16:00
12:36 AM,26.6,24.8,93,30.20,10.0,WSW,3.5,-,N/A,,Clear,240,2012-12-01 10:36:00
12:56 AM,26.6,24.8,93,30.20,10.0,SW,4.6,-,N/A,,Mostly Cloudy,230,2012-12-01 10:56:00
1:16 AM,26.6,24.8,93,30.21,10.0,WSW,4.6,-,N/A,,Mostly Cloudy,240,2012-12-01 11:16:00
1:36 AM,26.6,24.8,93,30.21,10.0,SW,4.6,-,N/A,,Mostly Cloudy,230,2012-12-01 11:36:00
1:56 AM,26.6,24.8,93,30.21,10.0,SW,5.8,-,N/A,,Mostly Cloudy,230,2012-12-01 11:56:00
2:16 AM,26.6,24.8,93,30.21,10.0,WSW,6.9,-,N/A,,Mostly Cloudy,240,2012-12-01 12:16:00
2:36 AM,28.4,26.6,93,30.21,10.0,Calm,Calm,-,N/A,,Overcast,0,2012-12-01 12:36:00
2:56 AM,28.4,24.8,86,30.21,10.0,WSW,5.8,-,N/A,,Overcast,250,2012-12-01 12:56:00
3:16 AM,26.6,24.8,93,30.21,10.0,WSW,4.6,-,N/A,,Scattered Clouds,250,2012-12-01 13:16:00
3:36 AM,26.6,21.2,80,30.21,10.0,Calm,Calm,-,N/A,,Partly Cloudy,0,2012-12-01 13:36:00
3:56 AM,26.6,24.8,93,30.22,10.0,Calm,Calm,-,N/A,,Partly Cloudy,0,2012-12-01 13:56:00
4:16 AM,24.8,23.0,93,30.23,10.0,Calm,Calm,-,N/A,,Clear,0,2012-12-01 14:16:00
4:36 AM,24.8,23.0,93,30.23,10.0,Calm,Calm,-,N/A,,Scattered Clouds,0,2012-12-01 14:36:00
4:56 AM,24.8,24.8,100,30.23,10.0,Calm,Calm,-,N/A,,Mostly Cloudy,0,2012-12-01 14:56:00
5:16 AM,24.8,21.2,86,30.24,10.0,SW,5.8,-,N/A,,Partly Cloudy,230,2012-12-01 15:16:00
5:36 AM,26.6,23.0,86,30.25,10.0,WSW,3.5,-,N/A,,Mostly Cloudy,240,2012-12-01 15:36:00
5:56 AM,28.4,26.6,93,30.25,10.0,West,3.5,-,N/A,,Overcast,270,2012-12-01 15:56:00
6:16 AM,28.4,26.6,93,30.26,10.0,SSW,5.8,-,N/A,,Overcast,210,2012-12-01 16:16:00
6:36 AM,28.4,26.6,93,30.26,10.0,WSW,4.6,-,N/A,,Overcast,250,2012-12-01 16:36:00
6:56 AM,30.2,28.4,93,30.26,10.0,WSW,4.6,-,N/A,,Overcast,240,2012-12-01 16:56:00
7:16 AM,30.2,28.4,93,30.26,10.0,SW,3.5,-,N/A,,Overcast,230,2012-12-01 17:16:00
7:36 AM,30.2,28.4,93,30.26,10.0,Calm,Calm,-,N/A,,Overcast,0,2012-12-01 17:36:00
7:56 AM,30.2,28.4,93,30.27,10.0,Calm,Calm,-,N/A,,Overcast,0,2012-12-01 17:56:00
8:16 AM,30.2,28.4,93,30.27,10.0,Calm,Calm,-,N/A,,Overcast,0,2012-12-01 18:16:00
8:36 AM,30.2,26.6,86,30.27,10.0,Calm,Calm,-,N/A,,Mostly Cloudy,0,2012-12-01 18:36:00
8:56 AM,30.2,28.4,93,30.26,10.0,Calm,Calm,-,N/A,,Overcast,0,2012-12-01 18:56:00
9:16 AM,30.2,28.4,93,30.26,10.0,NNW,3.5,-,N/A,,Mostly Cloudy,340,2012-12-01 19:16:00
9:36 AM,30.2,28.4,93,30.26,10.0,NNW,4.6,-,N/A,,Partly Cloudy,340,2012-12-01 19:36:00
9:56 AM,32.0,30.2,93,30.27,10.0,North,8.1,-,N/A,,Scattered Clouds,10,2012-12-01 19:56:00
10:16 AM,33.8,30.2,87,30.27,10.0,North,6.9,-,N/A,,Overcast,10,2012-12-01 20:16:00
10:36 AM,33.8,30.2,87,30.27,10.0,NNE,4.6,-,N/A,,Mostly Cloudy,20,2012-12-01 20:36:00
10:56 AM,33.8,32.0,93,30.27,10.0,NNE,3.5,-,N/A,,Mostly Cloudy,20,2012-12-01 20:56:00
11:16 AM,33.8,32.0,93,30.28,10.0,North,4.6,-,N/A,,Mostly Cloudy,10,2012-12-01 21:16:00
11:36 AM,35.6,33.8,93,30.28,10.0,North,5.8,-,N/A,,Mostly Cloudy,350,2012-12-01 21:36:00
11:56 AM,37.4,33.8,87,30.27,10.0,East,15.0,-,N/A,,Partly Cloudy,100,2012-12-01 21:56:00
12:16 PM,39.2,33.8,81,30.26,10.0,ENE,11.5,-,N/A,,Clear,70,2012-12-01 22:16:00
12:36 PM,37.4,33.8,87,30.26,10.0,ENE,5.8,-,N/A,,Partly Cloudy,60,2012-12-01 22:36:00
12:56 PM,39.2,33.8,81,30.26,10.0,ENE,5.8,-,N/A,,Scattered Clouds,60,2012-12-01 22:56:00
1:16 PM,39.2,33.8,81,30.26,10.0,NE,6.9,-,N/A,,Mostly Cloudy,40,2012-12-01 23:16:00
1:36 PM,39.2,33.8,81,30.27,10.0,NE,9.2,-,N/A,,Mostly Cloudy,50,2012-12-01 23:36:00
1:56 PM,39.2,35.6,87,30.27,10.0,East,15.0,-,N/A,,Partly Cloudy,80,2012-12-01 23:56:00
2:16 PM,39.2,33.8,81,30.27,10.0,East,13.8,-,N/A,,Clear,100,2012-12-02 00:16:00
2:36 PM,39.2,35.6,87,30.27,10.0,East,10.4,-,N/A,,Clear,80,2012-12-02 00:36:00
2:56 PM,39.2,35.6,87,30.27,10.0,ENE,9.2,-,N/A,,Clear,70,2012-12-02 00:56:00
3:16 PM,39.2,33.8,81,30.28,10.0,ENE,10.4,-,N/A,,Clear,70,2012-12-02 01:16:00
3:36 PM,39.2,33.8,81,30.28,10.0,ENE,8.1,-,N/A,,Clear,60,2012-12-02 01:36:00
3:56 PM,37.4,32.0,81,30.28,10.0,NNE,4.6,-,N/A,,Clear,20,2012-12-02 01:56:00
4:16 PM,37.4,33.8,87,30.29,10.0,North,4.6,-,N/A,,Clear,360,2012-12-02 02:16:00
4:36 PM,37.4,33.8,87,30.29,10.0,NNE,3.5,-,N/A,,Clear,20,2012-12-02 02:36:00
4:56 PM,37.4,32.0,81,30.29,10.0,NNW,4.6,-,N/A,,Clear,330,2012-12-02 02:56:00
5:16 PM,33.8,28.4,81,30.29,10.0,NNW,4.6,-,N/A,,Partly Cloudy,340,2012-12-02 03:16:00
5:36 PM,33.8,30.2,87,30.29,10.0,North,3.5,-,N/A,,Partly Cloudy,350,2012-12-02 03:36:00
5:56 PM,32.0,28.4,87,30.29,10.0,North,4.6,-,N/A,,Clear,350,2012-12-02 03:56:00
6:16 PM,30.2,26.6,86,30.30,10.0,Calm,Calm,-,N/A,,Clear,0,2012-12-02 04:16:00
6:36 PM,30.2,28.4,93,30.30,10.0,Calm,Calm,-,N/A,,Clear,0,2012-12-02 04:36:00
6:56 PM,28.4,26.6,93,30.30,10.0,Calm,Calm,-,N/A,,Clear,0,2012-12-02 04:56:00
7:16 PM,28.4,26.6,93,30.31,10.0,Calm,Calm,-,N/A,,Clear,0,2012-12-02 05:16:00
7:36 PM,26.6,24.8,93,30.31,10.0,WSW,5.8,-,N/A,,Clear,240,2012-12-02 05:36:00
7:56 PM,26.6,24.8,93,30.31,10.0,SW,4.6,-,N/A,,Clear,230,2012-12-02 05:56:00
8:16 PM,26.6,24.8,93,30.31,10.0,North,5.8,-,N/A,,Clear,360,2012-12-02 06:16:00
8:36 PM,26.6,24.8,93,30.32,10.0,Calm,Calm,-,N/A,,Clear,0,2012-12-02 06:36:00
8:56 PM,26.6,24.8,93,30.32,10.0,Calm,Calm,-,N/A,,Clear,0,2012-12-02 06:56:00
9:16 PM,24.8,24.8,100,30.32,10.0,West,3.5,-,N/A,,Clear,260,2012-12-02 07:16:00
9:36 PM,26.6,26.6,100,30.32,10.0,Calm,Calm,-,N/A,,Clear,0,2012-12-02 07:36:00
9:56 PM,28.4,26.6,93,30.32,10.0,NNW,3.5,-,N/A,,Clear,340,2012-12-02 07:56:00
10:16 PM,26.6,26.6,100,30.33,10.0,NNW,6.9,-,N/A,,Clear,340,2012-12-02 08:16:00
10:36 PM,28.4,26.6,93,30.33,10.0,North,6.9,-,N/A,,Clear,350,2012-12-02 08:36:00
10:56 PM,28.4,26.6,93,30.32,10.0,NNE,4.6,-,N/A,,Clear,30,2012-12-02 08:56:00
11:16 PM,28.4,26.6,93,30.32,10.0,NNW,5.8,-,N/A,,Clear,340,2012-12-02 09:16:00
11:36 PM,28.4,26.6,93,30.32,10.0,North,9.2,-,N/A,,Clear,360,2012-12-02 09:36:00
11:56 PM,30.2,26.6,86,30.31,10.0,North,8.1,-,N/A,,Clear,360,2012-12-02 09:56:00